Regional Weather Roundup
Issued by NWS

Home | Current Version | Previous Version | Graphics & Text | Print | Product List | Glossary On
Versions: 1 2 3 4 5 6 7 8 9 10 11 12 13 14 15 16 17 18 19 20 21 22 23 24 25 26 27
000
ASUS45 KBOI 201310
RWRID
WEATHER ROUNDUP FOR IDAHO
NATIONAL WEATHER SERVICE BOISE ID
700 AM MDT SUN APR 20 2014

NOTE: "FAIR" INDICATES FEW OR NO CLOUDS BELOW 12000 FEET
WITH NO SIGNIFICANT WEATHER AND/OR OBSTRUCTIONS TO VISIBILITY

IDZ012-014-201400-
SOUTHWEST IDAHO


CITY           SKY/WX    TMP DP  RH WIND       PRES   REMARKS
BOISE          CLEAR     43  31  62 W7        30.21R
CALDWELL       CLEAR     41  27  56 NW10      30.25R
MOUNTAIN HOME  CLEAR     42  31  64 W12       30.21R
$$

IDZ016-017-201400-
SOUTHCENTRAL IDAHO


CITY           SKY/WX    TMP DP  RH WIND       PRES   REMARKS
BURLEY         CLEAR     43  30  60 SW21      30.16R
JEROME         CLEAR     42  30  62 SW16      30.16R
TWIN FALLS     CLEAR     44  27  51 SW12      30.20R
$$

IDZ019>023-201400-
SOUTHEAST IDAHO


CITY           SKY/WX    TMP DP  RH WIND       PRES   REMARKS
IDAHO FALLS    MOCLDY    47  30  51 S21G32    30.08R
POCATELLO      CLEAR     46  26  45 SW21      30.14R
REXBURG        PTCLDY    46  29  51 SW14      30.07R
$$

IDZ006-010-011-018-031-032-201400-
CENTRAL IDAHO MOUNTAINS


CITY           SKY/WX    TMP DP  RH WIND       PRES   REMARKS
MCCALL         CLEAR     34  23  64 N8        30.18R WCI  27
HAILEY         PTCLDY    37  25  60 W7        30.11R WCI  32
STANLEY          N/A     25  20  81 CALM      30.17R
SALMON         CLEAR     39  23  52 CALM      30.16R
CHALLIS        CLEAR     41  25  53 NW13      30.14R
$$

IDZ002-004-006-007-026-201400-
NORTHERN IDAHO


CITY           SKY/WX    TMP DP  RH WIND       PRES   REMARKS
LEWISTON       CLEAR     43  26  51 W5        30.26R
LOWELL           N/A     41  40  96 CALM      30.29R
COEUR D`ALENE  PTCLDY    37  30  75 CALM      30.22R
MULLAN PASS    FLURRIES  27  25  92 VRB6      30.12R WCI  20
$$



USA.gov is the U.S. government's official web portal to all federal, state and local government web resources and services.